Location: Peterborough
(44.3091°N, 78.3197°W)
Time: 05:42:43
(UTC-04:00)

A-11 Canister half - Pass Details

Date: 31 March 2023
Orbit: 1513 x 1686 km, 47.2° (Epoch: 04 June)

Event Time Altitude Azimuth Distance (km) Brightness Sun altitude
Rises 22:45:36 0° 260° (W) 4,798 12.0 -30.6°
Reaches altitude 10° 22:48:40 10° 262° (W) 3,836 11.5 -31.0°
Maximum altitude 22:58:34 79° 350° (N) 1,683 9.1 -32.2°
Enters shadow 23:03:45 34° 72° (ENE) 2,492 9.8 -32.8°
